TimeCST,TemperatureF,Dew PointF,Humidity,Sea Level PressureIn,VisibilityMPH,Wind Direction,Wind SpeedMPH,Gust SpeedMPH,PrecipitationIn,Events,Conditions,WindDirDegrees,DateUTC
12:15 AM,46.6,44.1,91,30.15,5.0,SSE,6.9,-,N/A,,Clear,160,2012-11-22 06:15:00
12:35 AM,46.6,43.9,90,30.14,5.0,SSE,8.1,-,N/A,,Clear,160,2012-11-22 06:35:00
12:55 AM,46.0,43.7,92,30.13,4.0,SSE,9.2,-,N/A,,Clear,160,2012-11-22 06:55:00
1:15 AM,45.7,43.2,91,30.14,4.0,South,6.9,-,N/A,,Clear,170,2012-11-22 07:15:00
1:35 AM,44.4,42.3,92,30.14,4.0,South,8.1,-,N/A,,Clear,180,2012-11-22 07:35:00
1:55 AM,44.1,42.3,93,30.14,3.0,South,6.9,-,N/A,,Clear,170,2012-11-22 07:55:00
2:15 AM,43.5,41.9,94,30.13,3.0,South,8.1,-,N/A,,Clear,170,2012-11-22 08:15:00
2:35 AM,43.9,42.4,95,30.13,3.0,South,9.2,-,N/A,,Clear,170,2012-11-22 08:35:00
2:55 AM,45.0,43.3,94,30.13,4.0,SSE,9.2,-,N/A,,Clear,160,2012-11-22 08:55:00
3:15 AM,44.6,42.8,93,30.12,3.0,SSE,9.2,-,N/A,,Clear,160,2012-11-22 09:15:00
3:35 AM,44.6,42.8,93,30.11,3.0,South,9.2,-,N/A,,Clear,170,2012-11-22 09:35:00
3:55 AM,44.1,42.6,95,30.11,3.0,SSE,9.2,-,N/A,,Clear,160,2012-11-22 09:55:00
4:15 AM,44.6,43.0,94,30.10,3.0,South,10.4,-,N/A,,Clear,170,2012-11-22 10:15:00
4:35 AM,45.5,43.7,93,30.10,4.0,South,10.4,-,N/A,,Clear,170,2012-11-22 10:35:00
4:55 AM,45.1,43.3,93,30.09,4.0,SSE,10.4,-,N/A,,Clear,160,2012-11-22 10:55:00
5:15 AM,46.0,44.1,93,30.09,4.0,SSE,12.7,-,N/A,,Clear,160,2012-11-22 11:15:00
5:35 AM,45.9,43.7,92,30.09,4.0,South,12.7,-,N/A,,Clear,170,2012-11-22 11:35:00
5:55 AM,45.5,43.5,93,30.09,4.0,SSE,11.5,-,N/A,,Clear,160,2012-11-22 11:55:00
6:15 AM,45.0,43.2,93,30.08,3.0,SSE,10.4,-,N/A,,Clear,160,2012-11-22 12:15:00
6:35 AM,45.1,43.7,95,30.08,3.0,SSE,11.5,-,N/A,,Clear,160,2012-11-22 12:35:00
6:55 AM,45.3,43.7,94,30.08,2.0,SSE,10.4,-,N/A,,Clear,160,2012-11-22 12:55:00
7:15 AM,45.5,43.7,93,30.08,1.8,SSE,10.4,-,N/A,,Mist,160,2012-11-22 13:15:00
7:35 AM,45.9,44.4,95,30.08,1.8,South,11.5,-,N/A,,Mist,170,2012-11-22 13:35:00
7:55 AM,46.8,44.8,93,30.08,2.0,SSE,10.4,-,N/A,,Clear,160,2012-11-22 13:55:00
8:15 AM,47.1,45.1,93,30.08,2.0,South,11.5,-,N/A,,Clear,170,2012-11-22 14:15:00
8:35 AM,48.2,45.9,92,30.08,2.5,South,13.8,-,N/A,,Clear,170,2012-11-22 14:35:00
8:55 AM,49.5,47.3,92,30.07,2.5,South,15.0,-,N/A,,Clear,170,2012-11-22 14:55:00
9:15 AM,50.9,48.0,90,30.07,3.0,South,15.0,-,N/A,,Clear,180,2012-11-22 15:15:00
9:35 AM,52.0,48.7,89,30.06,4.0,South,16.1,-,N/A,,Clear,180,2012-11-22 15:35:00
9:55 AM,53.6,49.1,85,30.06,5.0,South,18.4,23.0,N/A,,Haze,170,2012-11-22 15:55:00
10:15 AM,54.0,49.5,85,30.06,5.0,South,17.3,-,N/A,,Clear,170,2012-11-22 16:15:00
10:35 AM,55.4,49.8,81,30.06,5.0,South,15.0,-,N/A,,Haze,180,2012-11-22 16:35:00
10:55 AM,55.4,49.5,80,30.05,7.0,South,16.1,-,N/A,,Clear,170,2012-11-22 16:55:00
11:15 AM,56.8,50.0,78,30.03,7.0,South,17.3,-,N/A,,Clear,170,2012-11-22 17:15:00
11:35 AM,59.0,50.2,73,30.02,7.0,South,19.6,-,N/A,,Clear,170,2012-11-22 17:35:00
11:55 AM,59.5,50.2,71,30.01,7.0,South,18.4,23.0,N/A,,Clear,170,2012-11-22 17:55:00
12:15 PM,60.6,50.7,70,30.00,10.0,South,18.4,-,N/A,,Clear,170,2012-11-22 18:15:00
12:35 PM,61.2,51.1,69,30.00,10.0,South,20.7,-,N/A,,Clear,180,2012-11-22 18:35:00
12:55 PM,61.7,50.5,67,29.98,10.0,South,18.4,-,N/A,,Clear,170,2012-11-22 18:55:00
1:15 PM,61.7,50.5,67,29.98,10.0,South,18.4,25.3,N/A,,Clear,180,2012-11-22 19:15:00
1:35 PM,61.7,50.9,68,29.97,10.0,South,17.3,-,N/A,,Clear,170,2012-11-22 19:35:00
1:55 PM,62.2,51.4,68,29.96,10.0,South,13.8,-,N/A,,Clear,180,2012-11-22 19:55:00
2:15 PM,63.7,50.0,61,29.94,10.0,South,18.4,-,N/A,,Clear,170,2012-11-22 20:15:00
2:35 PM,63.9,50.0,61,29.93,10.0,South,18.4,-,N/A,,Clear,170,2012-11-22 20:35:00
2:55 PM,64.2,49.6,59,29.93,10.0,South,20.7,24.2,N/A,,Clear,170,2012-11-22 20:55:00
3:15 PM,63.1,49.1,60,29.94,10.0,South,19.6,24.2,N/A,,Clear,170,2012-11-22 21:15:00
3:35 PM,62.4,48.9,61,29.94,10.0,South,17.3,-,N/A,,Clear,170,2012-11-22 21:35:00
3:55 PM,61.3,49.1,64,29.94,10.0,South,18.4,-,N/A,,Clear,180,2012-11-22 21:55:00
4:15 PM,60.6,48.4,64,29.93,10.0,South,19.6,-,N/A,,Scattered Clouds,170,2012-11-22 22:15:00
4:35 PM,59.5,47.8,65,29.93,10.0,South,15.0,-,N/A,,Scattered Clouds,170,2012-11-22 22:35:00
4:55 PM,58.5,48.0,68,29.93,10.0,South,16.1,-,N/A,,Clear,170,2012-11-22 22:55:00
5:15 PM,57.4,48.2,71,29.94,10.0,South,13.8,-,N/A,,Clear,180,2012-11-22 23:15:00
5:35 PM,56.5,48.2,74,29.94,10.0,South,16.1,-,N/A,,Scattered Clouds,180,2012-11-22 23:35:00
5:55 PM,57.2,48.2,72,29.95,10.0,South,18.4,-,N/A,,Scattered Clouds,180,2012-11-22 23:55:00
6:15 PM,56.8,48.2,73,29.95,10.0,South,12.7,-,N/A,,Overcast,180,2012-11-23 00:15:00
6:35 PM,57.4,47.7,70,29.95,10.0,South,17.3,-,N/A,,Overcast,190,2012-11-23 00:35:00
6:55 PM,55.6,49.1,79,29.95,7.0,South,17.3,-,N/A,Rain-Thunderstorm,Rain,190,2012-11-23 00:55:00
7:15 PM,54.9,49.6,83,29.96,7.0,South,11.5,-,N/A,Rain,Light Rain,190,2012-11-23 01:15:00
7:55 PM,54.7,49.6,83,29.98,10.0,SSW,13.8,-,N/A,Rain,Light Rain,210,2012-11-23 01:55:00
8:35 PM,56.5,51.3,83,29.98,10.0,SW,13.8,-,N/A,,Overcast,220,2012-11-23 02:35:00
8:55 PM,55.8,51.4,85,29.98,10.0,SW,11.5,-,N/A,,Overcast,220,2012-11-23 02:55:00
9:15 PM,56.3,51.3,83,29.98,10.0,SSW,15.0,-,N/A,,Overcast,210,2012-11-23 03:15:00
9:35 PM,56.5,52.0,85,29.99,10.0,SW,16.1,23.0,N/A,,Mostly Cloudy,230,2012-11-23 03:35:00
9:55 PM,56.7,52.3,85,30.00,10.0,SW,16.1,21.9,N/A,,Overcast,230,2012-11-23 03:55:00
10:15 PM,56.7,52.3,85,30.00,10.0,WSW,15.0,20.7,N/A,,Overcast,240,2012-11-23 04:15:00
10:35 PM,56.8,52.5,85,30.01,10.0,WSW,15.0,21.9,N/A,,Overcast,250,2012-11-23 04:35:00
10:55 PM,56.5,52.5,87,30.02,10.0,West,12.7,18.4,N/A,,Overcast,260,2012-11-23 04:55:00
11:15 PM,56.8,50.4,79,30.03,10.0,NW,19.6,25.3,N/A,,Mostly Cloudy,320,2012-11-23 05:15:00
11:55 PM,50.9,42.4,73,30.06,10.0,NW,18.4,-,N/A,,Clear,310,2012-11-23 05:55:00